Location: Lombard
(41.8800°N, 88.0080°W)
Time: 00:26:52
(UTC-05:00)

Tiros 1 - Pass Details

Date: 30 January 2023
Orbit: 628 x 662 km, 48.4° (Epoch: 20 March)

Event Time Altitude Azimuth Distance (km) Brightness Sun altitude
Rises 07:54:45 0° 295° (WNW) 2,954 9.9 7.1°
Reaches altitude 10° 07:57:09 10° 289° (WNW) 2,048 9.1 7.5°
Maximum altitude 08:01:37 43° 218° (SW) 910 8.0 8.2°
Drops below altitude 10° 08:06:07 10° 147° (SSE) 2,058 11.3 8.9°
Sets 08:08:32 0° 140° (SE) 2,971 12.3 9.3°
